This is the latest recevied weather packets stored in our database for station/object W5ITZ. If no packets are shown the sender has not sent any weather packets the latest 10 day(s).
| Time | Temp. | Humidity | Pressure | Rain* | Wind** | Luminosity | Snow |
|---|---|---|---|---|---|---|---|
| 1777996794 | 26.11° C | 83% | 1009.6 hPa | 0 mm | - | 184 W/m² | - |
| 1777996491 | 25.56° C | 83% | 1009.6 hPa | 0 mm | - | 123 W/m² | - |
| 1777996188 | 25.56° C | 84% | 1009.6 hPa | 0 mm | - | 181 W/m² | - |
| 1777995884 | 25.56° C | 86% | 1009.2 hPa | 0 mm | - | 184 W/m² | - |
| 1777995580 | 25.56° C | 86% | 1009.5 hPa | 0 mm | - | 181 W/m² | - |
| 1777995278 | 25.56° C | 86% | 1009.3 hPa | 0 mm | - | 116 W/m² | - |
| 1777994975 | 25.56° C | 87% | 1009.4 hPa | 0 mm | - | 156 W/m² | - |
| 1777994672 | 25° C | 87% | 1009.1 hPa | 0 mm | - | 130 W/m² | - |
| 1777994372 | 25° C | 88% | 1009.4 hPa | 0 mm | - | 141 W/m² | - |
| 1777994062 | 25° C | 88% | 1009.3 hPa | 0 mm | - | 99 W/m² | - |
| 1777993760 | 25° C | 88% | 1009.1 hPa | 0 mm | - | 69 W/m² | - |
| 1777993457 | 25° C | 89% | 1009.3 hPa | 0 mm | - | 211 W/m² | - |
| 1777993156 | 25° C | 89% | 1009.5 hPa | 0 mm | - | 150 W/m² | - |
| 1777992855 | 25° C | 90% | 1009 hPa | 0 mm | - | 166 W/m² | - |
| 1777992552 | 24.44° C | 90% | 1009.4 hPa | 0 mm | - | 194 W/m² | - |
| 1777992250 | 24.44° C | 90% | 1009.4 hPa | 0 mm | - | 128 W/m² | - |
| 1777991947 | 24.44° C | 90% | 1009.5 hPa | 0 mm | - | 86 W/m² | - |
| 1777991645 | 24.44° C | 90% | 1009.5 hPa | 0 mm | - | 93 W/m² | - |
| 1777991342 | 24.44° C | 90% | 1009.3 hPa | 0 mm | - | 30 W/m² | - |
| 1777991039 | 24.44° C | 90% | 1009.4 hPa | 0 mm | - | 100 W/m² | - |
| 1777990736 | 24.44° C | 91% | 1009.1 hPa | 0 mm | - | 101 W/m² | - |
| 1777990434 | 24.44° C | 91% | 1009.2 hPa | 0 mm | - | 135 W/m² | - |
| 1777989826 | 24.44° C | 92% | 1009.3 hPa | 0 mm | - | 99 W/m² | - |
| 1777989524 | 23.89° C | 92% | 1009 hPa | 0 mm | - | 105 W/m² | - |
| 1777989220 | 23.89° C | 93% | 1009.1 hPa | 0 mm | - | 98 W/m² | - |
* Rain latest hour (hover to see other rain measurements)
** Current wind speed in m/s (hover to see current wind gust speed)